sat.trackr.live / text

‹ back to catalog

STARLINK-4472

NORAD 53661 · 2022-105P

PAYLOAD ACTIVE UNKNOWN

§ Identity

Operator
Country
US
Launch date
2022-08-31
Launch site
AFWTR
Launch vehicle
Mass (kg)
RCS (m²)

Purposes: comms

External: N2YO · Heavens-Above · Gunter

§ Orbital elements

Epoch: 2026-05-25T02:33:02.706048Z

Period
95.64 min
Inclination
97.4514°
Eccentricity
0.0002031
Mean motion
15.05649323 rev/d
Perigee alt
548.1 km
Apogee alt
550.9 km
Semi-major
6,927.7 km
B*
8.2359e-6
RAAN
25.0296°
Arg perigee
70.7291°
Mean anomaly
289.4156°
Rev number
20,472

§ Raw data

STARLINK-44721 53661U 22105P   26145.10628132  .00000060  00000+0  82359-5 0  99992 53661  97.4514  25.0296 0002031  70.7291 289.4156 15.05649323204727

JSON: /api/v1/satellites/53661 · /tle

For live sub-satellite position, see the globe view (requires WebGL).

§ Visibility from observer

Set your observer location to see the next 7 days of passes ≥ 10°. The values pass through the URL so the page stays shareable.

No JS? Fill the form by hand. The geolocation button needs JavaScript.